Location: *
(50.8512°N, 5.6907°E)
Time: 18:44:31
(UTC+00:00)

Abrixas rocket - Pass Details

Date: 09 April 2020
Orbit: 345 x 352 km, 48.4° (Epoch: 24 May)

Event Time Altitude Azimuth Distance (km) Brightness Sun altitude
Rises 19:59:25 0° 274° (W) 2,162 7.0 -14.6°
Reaches altitude 10° 20:01:44 10° 257° (WSW) 1,319 5.4 -14.9°
Maximum altitude 20:04:01 21° 206° (SSW) 875 3.8 -15.2°
Enters shadow 20:04:36 19° 189° (S) 910 3.7 -15.3°
